Franklin, PA

10:14 PM EST on December 08, 2019 (GMT -0500)
Venango Regional

Weather History for KFKL - October, 2019

Change the Weather History Date:

Wednesday, October 9, 2019

  Actual Average Record
Temperature  
Mean Temperature 54 °F -  
Max Temperature 66 °F 62 °F 84 °F (1949)
Min Temperature 41 °F 41 °F 26 °F (1935)
Degree Days  
Heating Degree Days 12    
Growing Degree Days 4 (Base 50)    
Moisture  
Dew Point 42 °F    
Average Humidity 76    
Maximum Humidity 100    
Minimum Humidity 37    
Precipitation  
Precipitation 0.00 in - - ()
Sea Level Pressure  
Sea Level Pressure 30.27 in    
Wind  
Wind Speed 6 mph (East)    
Max Wind Speed 12 mph    
Max Gust Speed -    
Visibility 8 miles    
Events      
Averages and records for this station are not official NWS values.
T = Trace of Precipitation, MM = Missing Value Source: NWS Daily Summary

Daily Weather History Graph

Daily Weather History Graph

Search for Another Location

Airport or City:

Astronomy

Oct. 09, 2019 Rise Set
Actual Time 7:24 AM EDT 6:48 PM EDT
Civil Twilight 6:56 AM EDT 7:16 PM EDT
Nautical Twilight 6:24 AM EDT 7:47 PM EDT
Astronomical Twilight 5:52 AM EDT 8:20 PM EDT
Moon 5:22 PM EDT 3:05 AM EDT
Length of Visible Light 12h 19m
Length of Day
11h 23m
Waxing Gibbous, 85% of the Moon is Illuminated
Oct 9
Waxing Gibbous
Oct 13
Full
Oct 21
Last Quarter
Oct 27
New
Nov 4
First Quarter

Hourly Weather History & Observations

Time (EDT) Temp. Windchill Dew Point Humidity Pressure Visibility Wind Dir Wind Speed Gust Speed Precip Events Conditions
12:56 AM 44.1 °F 40.8 °F 43.0 °F 96% 30.27 in 10.0 mi ENE 5.8 mph - N/A   Clear
1:10 AM 44.6 °F 41.4 °F 42.8 °F 93% 30.26 in 2.5 mi ENE 5.8 mph - N/A   Partly Cloudy
1:26 AM 44.6 °F 41.4 °F 44.6 °F 100% 30.26 in 4.0 mi ENE 5.8 mph - N/A   Scattered Clouds
1:33 AM 44.6 °F 42.2 °F 44.6 °F 100% 30.26 in 1.0 mi NE 4.6 mph - N/A   Mostly Cloudy
1:42 AM 44.6 °F 41.4 °F 42.8 °F 93% 30.26 in 2.0 mi NE 5.8 mph - N/A   Mostly Cloudy
1:56 AM 44.1 °F 41.5 °F 43.0 °F 96% 30.27 in 4.0 mi ENE 4.6 mph - N/A   Mostly Cloudy
2:04 AM 44.6 °F 41.4 °F 42.8 °F 93% 30.26 in 10.0 mi ENE 5.8 mph - N/A   Partly Cloudy
2:56 AM 43.0 °F 41.3 °F 42.1 °F 97% 30.27 in 10.0 mi ENE 3.5 mph - N/A   Clear
3:56 AM 42.1 °F 39.2 °F 41.0 °F 96% 30.27 in 10.0 mi NE 4.6 mph - N/A   Clear
4:36 AM 42.8 °F 39.3 °F 41.0 °F 93% 30.26 in 2.5 mi ENE 5.8 mph - N/A   Partly Cloudy
4:51 AM 42.8 °F 38.0 °F 41.0 °F 93% 30.26 in 9.0 mi ENE 8.1 mph - N/A   Partly Cloudy
4:56 AM 43.0 °F 38.2 °F 41.0 °F 93% 30.27 in 10.0 mi ENE 8.1 mph - N/A   Partly Cloudy
5:56 AM 41.0 °F 36.4 °F 39.9 °F 96% 30.29 in 10.0 mi ENE 6.9 mph - N/A   Clear
6:56 AM 41.0 °F 36.4 °F 39.9 °F 96% 30.30 in 10.0 mi ENE 6.9 mph - N/A   Clear
7:56 AM 41.0 °F 37.1 °F 39.9 °F 96% 30.31 in 10.0 mi ENE 5.8 mph - N/A   Clear
8:56 AM 44.1 °F 40.8 °F 42.1 °F 93% 30.32 in 10.0 mi ENE 5.8 mph - N/A   Clear
9:56 AM 48.9 °F - 43.0 °F 80% 30.33 in 10.0 mi East 8.1 mph - N/A   Clear
10:56 AM 55.9 °F - 45.0 °F 67% 30.32 in 10.0 mi ESE 6.9 mph - N/A   Clear
11:56 AM 59.0 °F - 42.1 °F 53% 30.30 in 10.0 mi SE 11.5 mph - N/A   Clear
12:56 PM 62.1 °F - 43.0 °F 50% 30.29 in 10.0 mi ESE 9.2 mph - N/A   Clear
1:56 PM 64.0 °F - 42.1 °F 45% 30.26 in 10.0 mi East 8.1 mph - N/A   Clear
2:56 PM 66.0 °F - 42.1 °F 42% 30.25 in 10.0 mi ESE 6.9 mph - N/A   Clear
3:56 PM 66.9 °F - 39.9 °F 37% 30.23 in 10.0 mi East 6.9 mph - N/A   Clear
4:56 PM 66.0 °F - 39.0 °F 37% 30.22 in 10.0 mi Variable 4.6 mph - N/A   Clear
5:56 PM 64.0 °F - 41.0 °F 43% 30.23 in 10.0 mi ESE 3.5 mph - N/A   Clear
6:56 PM 59.0 °F - 41.0 °F 51% 30.24 in 10.0 mi East 4.6 mph - N/A   Clear
7:56 PM 55.0 °F - 39.9 °F 57% 30.26 in 10.0 mi ESE 4.6 mph - N/A   Clear
8:56 PM 54.0 °F - 39.9 °F 59% 30.26 in 10.0 mi East 4.6 mph - N/A   Clear
9:56 PM 51.1 °F - 39.9 °F 66% 30.27 in 10.0 mi East 5.8 mph - N/A   Clear
10:56 PM 48.0 °F - 41.0 °F 77% 30.27 in 10.0 mi ESE 5.8 mph - N/A   Clear
11:56 PM 46.0 °F 42.5 °F 39.9 °F 79% 30.27 in 10.0 mi ESE 6.9 mph - N/A   Clear